Total_Precipitation_Accumulation
0.61 0.60 0.62 0.57 0.56 0.55 0.58 0.69 0.88 0.76 0.41 0.26 0.25 0.25 0.28 0.32 0.31 0.29 0.27 0.34 0.39 0.43 0.48 0.51 0.57 0.75 1.09 1.59 2.16 3.05 3.62 3.25 2.47 1.91 1.79 2.04 2.45 2.91
0.67 0.68 0.65 0.61 0.63 0.65 0.66 0.65 0.72 0.82 0.62 0.29 0.25 0.26 0.31 0.39 0.42 0.35 0.32 0.39 0.41 0.42 0.43 0.43 0.46 0.58 0.80 1.13 1.53 2.11 2.99 3.46 3.22 2.69 2.25 2.27 2.43 2.78
0.70 0.71 0.68 0.65 0.73 0.76 0.79 0.76 0.70 0.72 0.74 0.39 0.29 0.32 0.42 0.49 0.49 0.42 0.40 0.38 0.36 0.39 0.40 0.43 0.45 0.51 0.65 0.87 1.11 1.47 2.11 2.88 3.33 3.33 2.95 2.65 2.54 2.57
0.74 0.76 0.75 0.72 0.75 0.79 0.87 0.86 0.76 0.68 0.73 0.58 0.40 0.43 0.51 0.57 0.57 0.51 0.47 0.44 0.35 0.35 0.37 0.42 0.46 0.52 0.60 0.73 0.91 1.14 1.49 2.05 2.64 3.05 3.13 2.81 2.62 2.63
0.74 0.79 0.82 0.83 0.77 0.77 0.88 0.93 0.85 0.77 0.76 0.73 0.51 0.43 0.50 0.61 0.69 0.65 0.57 0.55 0.45 0.39 0.38 0.40 0.44 0.49 0.55 0.63 0.77 0.94 1.10 1.30 1.73 2.34 2.92 3.00 2.78 2.71
0.67 0.69 0.79 0.92 0.93 0.94 0.98 0.96 0.97 0.98 0.92 0.87 0.69 0.55 0.57 0.65 0.79 0.82 0.74 0.66 0.58 0.49 0.47 0.44 0.45 0.48 0.50 0.52 0.55 0.65 0.83 1.09 1.40 1.85 2.35 2.77 2.83 2.76
0.67 0.63 0.73 0.96 1.13 1.30 1.35 1.23 1.23 1.32 1.25 1.16 1.02 0.85 0.73 0.76 0.84 0.84 0.88 0.78 0.70 0.62 0.54 0.47 0.43 0.41 0.40 0.43 0.45 0.50 0.61 0.81 1.06 1.40 1.82 2.21 2.54 2.72
0.74 0.65 0.71 0.95 1.09 1.19 1.32 1.30 1.32 1.48 1.54 1.46 1.30 1.08 0.82 0.71 0.75 0.88 1.03 1.10 0.97 0.74 0.64 0.56 0.49 0.46 0.39 0.35 0.38 0.44 0.52 0.68 0.88 1.13 1.42 1.75 2.12 2.46
0.76 0.70 0.72 0.83 0.95 0.97 1.04 1.06 1.08 1.24 1.45 1.53 1.46 1.13 0.93 0.81 0.93 1.08 1.09 1.16 1.04 0.94 0.93 0.88 0.63 0.53 0.42 0.42 0.47 0.45 0.51 0.61 0.72 0.90 1.16 1.43 1.74 2.09
0.79 0.72 0.67 0.72 0.84 0.97 1.03 0.98 0.91 0.98 1.20 1.38 1.55 1.34 1.14 1.13 1.31 1.48 1.50 1.47 1.26 1.15 1.11 1.21 0.91 0.66 0.54 0.50 0.51 0.46 0.48 0.55 0.63 0.73 0.93 1.15 1.38 1.71
0.82 0.76 0.68 0.64 0.81 0.94 0.91 0.85 0.79 0.84 0.95 1.14 1.26 1.28 1.28 1.41 1.65 1.96 2.03 1.94 1.68 1.38 1.23 1.23 1.19 1.06 0.93 0.77 0.66 0.58 0.51 0.52 0.58 0.66 0.77 0.93 1.16 1.50
0.86 0.80 0.84 0.82 0.88 0.89 0.80 0.81 0.88 0.81 0.77 0.80 0.83 0.85 0.89 1.01 1.36 1.76 1.98 2.01 1.80 1.70 1.47 1.30 1.34 1.37 1.56 1.27 0.94 0.70 0.56 0.57 0.59 0.62 0.67 0.74 0.93 1.11
0.88 0.86 0.80 0.92 0.91 0.86 0.82 0.80 0.93 0.86 0.76 0.82 0.81 0.75 0.73 0.80 0.96 1.26 1.66 1.95 1.96 1.78 1.56 1.55 1.67 1.43 1.49 1.48 1.21 0.91 0.64 0.57 0.56 0.61 0.65 0.68 0.75 0.84
0.84 0.77 0.74 0.87 0.89 0.90 0.85 0.86 0.88 0.86 0.79 0.77 0.72 0.69 0.70 0.76 0.87 1.03 1.26 1.54 1.70 1.64 1.47 1.59 1.91 1.61 1.37 1.24 1.16 1.08 0.83 0.68 0.58 0.55 0.56 0.72 0.80 0.82
0.91 0.94 0.88 0.93 0.94 0.84 0.79 0.81 0.78 0.72 0.76 0.77 0.67 0.60 0.62 0.71 0.77 0.85 0.94 1.14 1.34 1.39 1.41 1.50 1.74 1.74 1.55 1.30 1.00 0.93 0.92 0.90 0.73 0.63 0.59 0.60 0.61 0.65
1.06 1.03 1.00 0.99 0.94 0.85 0.79 0.69 0.61 0.61 0.69 0.71 0.64 0.57 0.54 0.59 0.68 0.79 0.89 0.99 1.20 1.30 1.36 1.52 1.75 1.95 1.83 1.30 1.04 0.89 0.78 0.94 0.91 0.75 0.67 0.63 0.58 0.52
1.13 1.15 1.07 1.02 1.00 0.90 0.75 0.63 0.57 0.59 0.62 0.59 0.61 0.60 0.58 0.58 0.61 0.68 0.87 0.98 1.13 1.20 1.33 1.59 1.85 1.94 1.94 1.68 1.36 1.00 0.76 0.75 0.83 0.79 0.75 0.75 0.74 0.62
1.13 1.12 0.96 0.82 0.77 0.73 0.67 0.60 0.55 0.51 0.50 0.54 0.58 0.59 0.59 0.61 0.63 0.65 0.79 0.96 1.08 1.13 1.19 1.39 1.74 1.98 2.09 2.05 1.63 1.16 0.88 0.82 0.91 0.90 0.81 0.78 0.85 0.79
0.95 0.84 0.75 0.68 0.63 0.58 0.55 0.53 0.52 0.47 0.46 0.52 0.54 0.55 0.55 0.59 0.63 0.66 0.72 0.86 0.97 1.07 1.17 1.27 1.52 1.83 1.97 2.04 1.99 1.47 1.08 0.94 1.03 1.16 1.03 0.81 0.75 0.79
0.71 0.69 0.67 0.64 0.64 0.63 0.59 0.56 0.53 0.52 0.51 0.50 0.49 0.50 0.53 0.58 0.62 0.63 0.67 0.80 0.89 0.98 1.09 1.19 1.40 1.66 1.80 1.72 1.74 1.70 1.51 1.19 1.06 1.21 1.21 1.03 0.90 0.97
0.65 0.63 0.63 0.64 0.65 0.65 0.60 0.56 0.55 0.51 0.47 0.47 0.46 0.45 0.46 0.53 0.56 0.55 0.61 0.70 0.80 0.88 0.96 1.05 1.23 1.42 1.62 1.64 1.51 1.45 1.61 1.62 1.26 1.16 1.22 1.23 1.17 1.16
0.64 0.64 0.62 0.62 0.65 0.66 0.63 0.60 0.57 0.52 0.48 0.46 0.45 0.43 0.42 0.47 0.51 0.53 0.57 0.64 0.69 0.77 0.87 0.97 1.09 1.28 1.53 1.66 1.56 1.38 1.47 1.68 1.67 1.44 1.29 1.20 1.18 1.14
0.68 0.68 0.65 0.63 0.64 0.64 0.64 0.61 0.56 0.52 0.48 0.46 0.44 0.43 0.43 0.44 0.44 0.49 0.55 0.59 0.65 0.70 0.79 0.94 1.06 1.19 1.41 1.57 1.58 1.43 1.36 1.47 1.52 1.48 1.57 1.37 0.99 0.74